When you browse on this site, cookies collect data to enhance your experience and personalize the content and advertising you see.
Visit our Privacy Policy to learn more. By continuing to use the site, you agree to this use of cookies and data.
  • In Spain
  • List of Countries
  • For 7 days
  • Water Temperature
  • Weather Map
  • Weather Widgets
  • user-avatar
    Login

    Hourly Weather Brest

    Today, 6 April, Monday

    Time Temperature Precipitation Wind Pressure Humidity
    00:00 +5°C° 0 mm 2 mps 763 mmHg 46%
    01:00 +4°C° 0 mm 2 mps 763 mmHg 47%
    02:00 +4°C° 0 mm 2 mps 763 mmHg 47%
    03:00 +3°C° 0 mm 2 mps 763 mmHg 48%
    04:00 +3°C° 0 mm 2 mps 763 mmHg 49%
    05:00 +3°C° 0 mm 2 mps 763 mmHg 50%
    06:00 +3°C° 0 mm 3 mps 763 mmHg 49%
    07:00 +4°C° 0 mm 3 mps 763 mmHg 48%
    08:00 +5°C° 0 mm 3 mps 763 mmHg 48%
    09:00 +6°C° 0 mm 4 mps 763 mmHg 43%
    10:00 +8°C° 0 mm 4 mps 763 mmHg 39%
    11:00 +11°C° 0 mm 4 mps 763 mmHg 35%
    12:00 +12°C° 0 mm 4 mps 763 mmHg 33%
    13:00 +13°C° 0 mm 4 mps 763 mmHg 32%
    14:00 +14°C° 0 mm 4 mps 763 mmHg 30%
    15:00 +14°C° 0 mm 4 mps 763 mmHg 31%
    16:00 +14°C° 0 mm 4 mps 762 mmHg 32%
    17:00 +14°C° 0 mm 4 mps 762 mmHg 33%
    18:00 +12°C° 0 mm 3 mps 762 mmHg 38%
    19:00 +11°C° 0 mm 3 mps 762 mmHg 43%
    20:00 +9°C° 0 mm 3 mps 762 mmHg 49%
    21:00 +8°C° 0 mm 3 mps 762 mmHg 50%
    22:00 +8°C° 0 mm 3 mps 762 mmHg 52%
    23:00 +7°C° 0 mm 3 mps 762 mmHg 53%

    Tomorrow, 7 April, Tuesday

    Time Temperature Precipitation Wind Pressure Humidity
    00:00 +7°C° 0 mm 3 mps 762 mmHg 56%
    01:00 +5°C° 0 mm 3 mps 762 mmHg 58%
    02:00 +5°C° 0 mm 3 mps 762 mmHg 60%
    03:00 +5°C° 0 mm 2 mps 762 mmHg 62%
    04:00 +5°C° 0 mm 2 mps 762 mmHg 65%
    05:00 +5°C° 0 mm 2 mps 762 mmHg 67%
    06:00 +6°C° 0 mm 2 mps 762 mmHg 64%
    07:00 +7°C° 0 mm 3 mps 762 mmHg 61%
    08:00 +8°C° 0 mm 3 mps 762 mmHg 58%
    09:00 +10°C° 0 mm 3 mps 762 mmHg 53%
    10:00 +12°C° 0 mm 3 mps 762 mmHg 47%
    11:00 +14°C° 0 mm 3 mps 762 mmHg 41%
    12:00 +16°C° 0 mm 3 mps 762 mmHg 39%
    13:00 +17°C° 0 mm 4 mps 762 mmHg 36%
    14:00 +18°C° 0 mm 4 mps 761 mmHg 34%
    15:00 +18°C° 0 mm 3 mps 761 mmHg 35%
    16:00 +18°C° 0 mm 3 mps 761 mmHg 36%
    17:00 +18°C° 0 mm 3 mps 760 mmHg 37%
    18:00 +16°C° 0 mm 3 mps 760 mmHg 42%
    19:00 +13°C° 0 mm 3 mps 760 mmHg 47%
    20:00 +13°C° 0 mm 2 mps 760 mmHg 52%
    21:00 +12°C° 0 mm 2 mps 760 mmHg 54%
    22:00 +10°C° 0 mm 2 mps 760 mmHg 57%
    23:00 +10°C° 0 mm 2 mps 760 mmHg 59%

    Day after tomorrow, 8 April, Wednesday

    Time Temperature Precipitation Wind Pressure Humidity
    00:00 +9°C° 0 mm 2 mps 760 mmHg 61%
    01:00 +9°C° 0 mm 2 mps 760 mmHg 63%
    02:00 +8°C° 0 mm 2 mps 760 mmHg 66%
    03:00 +8°C° 0 mm 2 mps 760 mmHg 71%
    04:00 +8°C° 0 mm 2 mps 760 mmHg 76%
    05:00 +7°C° 0 mm 2 mps 760 mmHg 81%
    06:00 +9°C° 0 mm 1 mps 760 mmHg 80%
    07:00 +10°C° 0 mm 1 mps 760 mmHg 78%
    08:00 +11°C° 0 mm 1 mps 759 mmHg 77%
    09:00 +13°C° 0 mm 1 mps 759 mmHg 72%
    10:00 +15°C° 0 mm 1 mps 759 mmHg 66%
    11:00 +18°C° 0 mm 1 mps 759 mmHg 61%
    12:00 +17°C° 0 mm 2 mps 759 mmHg 57%
    13:00 +18°C° 0 mm 2 mps 758 mmHg 53%
    14:00 +19°C° 0 mm 2 mps 758 mmHg 50%
    15:00 +19°C° 0 mm 2 mps 757 mmHg 49%
    16:00 +19°C° 0 mm 2 mps 757 mmHg 49%
    17:00 +19°C° 0 mm 2 mps 756 mmHg 48%
    18:00 +19°C° 0 mm 1 mps 756 mmHg 51%
    19:00 +18°C° 0 mm 1 mps 756 mmHg 54%
    20:00 +16°C° 0 mm 1 mps 755 mmHg 56%
    21:00 +15°C° 0 mm 1 mps 755 mmHg 57%
    22:00 +14°C° 0 mm 1 mps 755 mmHg 58%
    23:00 +14°C° 0 mm 1 mps 755 mmHg 59%

    9 April, Thursday

    Time Temperature Precipitation Wind Pressure Humidity
    00:00 +13°C° 0 mm 1 mps 755 mmHg 62%
    01:00 +13°C° 0 mm 1 mps 754 mmHg 64%
    02:00 +12°C° 0 mm 2 mps 754 mmHg 66%
    03:00 +10°C° 0 mm 2 mps 754 mmHg 66%
    04:00 +10°C° 0 mm 2 mps 753 mmHg 65%
    05:00 +9°C° 0 mm 3 mps 753 mmHg 65%
    06:00 +10°C° 0 mm 3 mps 753 mmHg 61%
    07:00 +11°C° 0 mm 3 mps 752 mmHg 58%
    08:00 +11°C° 0 mm 3 mps 752 mmHg 54%
    09:00 +13°C° 0 mm 4 mps 752 mmHg 48%
    10:00 +15°C° 0 mm 5 mps 752 mmHg 41%
    11:00 +17°C° 0 mm 6 mps 751 mmHg 35%
    12:00 +17°C° 0 mm 6 mps 751 mmHg 34%
    13:00 +19°C° 0 mm 6 mps 750 mmHg 33%
    14:00 +18°C° 0 mm 7 mps 750 mmHg 32%
    15:00 +19°C° 0 mm 6 mps 750 mmHg 35%
    16:00 +19°C° 0 mm 6 mps 749 mmHg 38%
    17:00 +19°C° 0 mm 5 mps 749 mmHg 42%
    18:00 +16°C° 0 mm 5 mps 749 mmHg 47%
    19:00 +15°C° 0 mm 4 mps 749 mmHg 52%
    20:00 +14°C° 0 mm 4 mps 749 mmHg 58%
    21:00 +13°C° 0 mm 3 mps 749 mmHg 64%
    22:00 +12°C° 0 mm 3 mps 749 mmHg 71%
    23:00 +11°C° 0 mm 3 mps 749 mmHg 77%

    10 April, Friday

    Time Temperature Precipitation Wind Pressure Humidity
    00:00 +11°C° 0.1 mm 3 mps 749 mmHg 78%
    01:00 +10°C° 0.1 mm 3 mps 749 mmHg 79%
    02:00 +10°C° 0.1 mm 3 mps 749 mmHg 80%
    03:00 +9°C° 0 mm 3 mps 750 mmHg 78%
    04:00 +8°C° 0 mm 3 mps 750 mmHg 77%
    05:00 +6°C° 0 mm 4 mps 750 mmHg 76%
    06:00 +6°C° 0 mm 4 mps 751 mmHg 74%
    07:00 +6°C° 0 mm 5 mps 751 mmHg 72%
    08:00 +6°C° 0 mm 5 mps 752 mmHg 70%
    09:00 +7°C° 0 mm 5 mps 752 mmHg 63%
    10:00 +8°C° 0 mm 5 mps 752 mmHg 56%
    11:00 +9°C° 0 mm 5 mps 753 mmHg 49%
    12:00 +11°C° 0 mm 4 mps 753 mmHg 43%
    13:00 +12°C° 0 mm 4 mps 753 mmHg 37%
    14:00 +13°C° 0 mm 4 mps 753 mmHg 32%
    15:00 +13°C° 0 mm 4 mps 753 mmHg 32%
    16:00 +12°C° 0 mm 4 mps 753 mmHg 32%
    17:00 +12°C° 0 mm 3 mps 752 mmHg 32%
    18:00 +11°C° 0 mm 3 mps 752 mmHg 36%
    19:00 +10°C° 0 mm 2 mps 752 mmHg 40%
    20:00 +9°C° 0 mm 1 mps 753 mmHg 43%
    21:00 +9°C° 0 mm 1 mps 753 mmHg 43%
    22:00 +9°C° 0 mm 1 mps 753 mmHg 44%
    23:00 +8°C° 0 mm 1 mps 753 mmHg 44%

    11 April, Saturday

    Time Temperature Precipitation Wind Pressure Humidity
    00:00 +7°C° 0 mm 2 mps 753 mmHg 46%
    01:00 +7°C° 0 mm 2 mps 753 mmHg 49%
    02:00 +6°C° 0 mm 2 mps 753 mmHg 51%
    03:00 +6°C° 0 mm 2 mps 752 mmHg 55%
    04:00 +6°C° 0 mm 2 mps 752 mmHg 59%
    05:00 +5°C° 0 mm 2 mps 752 mmHg 63%
    06:00 +7°C° 0 mm 1 mps 752 mmHg 62%
    07:00 +8°C° 0 mm 1 mps 753 mmHg 62%
    08:00 +9°C° 0 mm 1 mps 753 mmHg 61%
    09:00 +10°C° 0 mm 1 mps 753 mmHg 56%
    10:00 +12°C° 0 mm 1 mps 753 mmHg 51%
    11:00 +13°C° 0 mm 2 mps 753 mmHg 46%
    12:00 +14°C° 0 mm 2 mps 753 mmHg 43%
    13:00 +15°C° 0 mm 2 mps 753 mmHg 40%
    14:00 +15°C° 0 mm 2 mps 752 mmHg 37%
    15:00 +16°C° 0 mm 2 mps 752 mmHg 37%
    16:00 +16°C° 0 mm 2 mps 752 mmHg 37%
    17:00 +16°C° 0 mm 2 mps 752 mmHg 36%
    18:00 +14°C° 0 mm 1 mps 752 mmHg 41%
    19:00 +13°C° 0 mm 1 mps 752 mmHg 45%
    20:00 +11°C° 0 mm 1 mps 752 mmHg 49%
    21:00 +11°C° 0 mm 1 mps 752 mmHg 53%
    22:00 +9°C° 0 mm 2 mps 753 mmHg 56%
    23:00 +8°C° 0 mm 2 mps 753 mmHg 59%
    Show more